Home > Weather > Bloomington > Past weeks

Flag for U.S.A. Weather for the Past 2 Weeks in Bloomington, Illinois, U.S.A.

Now
14 °F

Sunny.


Feels Like: 4 °F
Forecast: 5 / 21 °F
Wind: 7 mph from Northeast

Location: Bloomington / Normal

Current Time: Feb 11, 2016 at 9:52:27 AM

Latest Report: Feb 11, 2016 at 8:56 AM


Visibility: 10 mi

Pressure: 30.41 "Hg

Humidity: 67%

Dew point: 5 °F

Location of BloomingtonLocation

Historic Weather in Bloomington — Graph

°F

Bloomington Temperature Yesterday

Maximum temperature yesterday: 20 °F (at 1:56 PM)
Minimum temperature yesterday: 7 °F (at 6:56 AM)
Average temperature yesterday: 14 °F

High & Low Weather Summary for the Past Weeks

 TemperatureHumidityPressure
High58 °F (Jan 31, 12:56 PM)100% (Jan 30, 6:56 PM)30.46 "Hg (Jan 30, 6:56 PM)
Low7 °F (Feb 10, 6:56 AM)46% (Feb 1, 2:56 PM)29.46 "Hg (Feb 2, 6:56 PM)
Average32 °F82%29.99 "Hg
* Reported Jan 27 8:56 AM — Feb 11 8:56 AM, Bloomington, Weather by CustomWeather, © 2016

Note: Actual official high and low records may vary slightly from our data, if they occured in-between our weather recording intervals... More about our weather records

Advertising

Bloomington Weather History for the Previous 24 Hours

 ConditionsComfort  
Time TempWeatherWind HumidityBarometerVisibility
8:56 AM
Thu, Feb 11
14 °FSunny.7 mph67%30.41 "Hg10 mi
7:56 AM12 °FSunny.6 mph77%30.39 "Hg10 mi
6:56 AM9 °FSunny.6 mph83%30.37 "Hg10 mi
5:56 AM10 °FClear.3 mph80%30.35 "Hg10 mi
4:56 AM10 °FClear.6 mph80%30.34 "Hg10 mi
3:56 AM11 °FClear.6 mph76%30.30 "Hg10 mi
2:56 AM12 °FPassing clouds.8 mph77%30.29 "Hg10 mi
1:56 AM12 °FPassing clouds.7 mph73%30.27 "Hg10 mi
12:56 AM12 °FClear.6 mph73%30.25 "Hg10 mi
11:56 PM
Wed, Feb 10
14 °FPassing clouds.8 mph67%30.25 "Hg10 mi
10:56 PM15 °FOvercast.6 mph67%30.25 "Hg10 mi
9:56 PM15 °FPassing clouds.6 mph71%30.25 "Hg10 mi
8:56 PM16 °FPassing clouds.8 mph67%30.24 "Hg10 mi
7:56 PM16 °FClear.9 mph67%30.23 "Hg10 mi
6:56 PM18 °FPassing clouds.10 mph62%30.21 "Hg10 mi
5:56 PM19 °FPassing clouds.8 mph54%30.19 "Hg10 mi
4:56 PM19 °FBroken clouds.9 mph54%30.17 "Hg10 mi
3:56 PM20 °FOvercast.10 mph54%30.15 "Hg10 mi
2:56 PM20 °FPartly sunny.12 mph52%30.14 "Hg10 mi
1:56 PM20 °FPassing clouds.10 mph50%30.13 "Hg10 mi
12:56 PM19 °FSunny.14 mph54%30.14 "Hg10 mi
11:56 AM17 °FSunny.14 mph56%30.17 "Hg10 mi
10:56 AM16 °FSunny.15 mph56%30.17 "Hg10 mi
9:56 AM13 °FSunny.12 mph61%30.18 "Hg10 mi
Weather by CustomWeather, © 2016

See weather overviewHow to use our weather pages